Find Kosmos-83

NORAD ID: 1573 Int'l Des: 1965-070 Owner: OKB10 Country: SU operational
LEOCIRCULAR

Current View

Loading 3D Globe...

About Kosmos-83

Description loading...

Upcoming Passes

Passes for default location (London). Set your location on the main map for personalized predictions.

Altitude History

Loading altitude history...

Two-Line Element Set

1 1573U 65070D 26150.99528304 -.00000078 00000-0 11093-3 0 9991
2 1573 56.0563 29.2933 0068715 54.7356 305.9951 12.41045382753072
Epoch: May 30, 2026 • Age: 14 hours

Current Status

Altitude 1485.1 km
Velocity 7.14 km/s
Sub-Earth Point 44.98°N, 65.64°E
Type other

Most Searched